Location: Newark
(45.5000°N, 11.4167°E)
Time: 12:22:52
(UTC+00:00)

Vanguard 2 - Pass Details

Date: 24 August 2019
Orbit: 554 x 2937 km, 32.9° (Epoch: 17 September)

Event Time Altitude Azimuth Distance (km) Brightness Sun altitude
Rises 14:12:21 0° 255° (WSW) 3,809 12.0 39.2°
Reaches altitude 10° 14:14:49 10° 246° (WSW) 3,112 11.9 38.9°
Maximum altitude 14:22:01 37° 182° (S) 2,336 10.7 37.7°
Drops below altitude 10° 14:33:15 10° 122° (ESE) 4,852 11.4 35.9°
Sets 14:38:12 0° 116° (ESE) 6,201 11.8 35.2°
